星链-2432 (STARLINK-2432 )

导读

STARLINK-2432是美国太空探索技术公司(SpaceX)星链(Starlink)星座的卫星,于2021年3月11日发射升空,属于星链项目第二代部署批次。该卫星承担星链全球低轨宽带互联网覆盖组网任务,依靠星链星座部署,为全球用户提供高速互联网接入服务。

基本信息
目录编号:
47840
目录名称:
STARLINK-2432
国际标识:
2021-018BF
轨道中心:
EARTH
卫星名称:
星链-2432
卫星全名:
星链-2432 (STARLINK-2432 )
卫星状态:
在轨 (已飞行2003 天)
发射日期:
2021-03-11 UTC
国别 :
美国 (US)
星等 :
--
轨道信息
数据来源 国际轨道数据
星历时间: 2026-09-02T07:44:05+0800
2天前
查看轨道信息
半长轴: 6848.873km
偏心率: 0.0001088
轨道倾角: 53.158°
近地点辐角 88.108°
升交点赤经 138.785°
平近点角 272.004°
近地点: 469.99km
远地点: 471.482km
周期: 94.013分钟
每日圈数: 15.317016
详细信息
固有亮度:
5
最大亮度:
2.5
卫星平台:
Starlink V1.0
覆盖范围:
全球
运营商:
太空探索技术公司
运营商所在国:
美国
制造商(研发单位):
太空探索技术公司
制造商所在国:
美国
使用方式:
暂无
卫星简介
星链(Starlink)计划是由太空探索技术公司(SpaceX)提出的一个巨型低轨卫星互联网星座项目,计划在2019年至2024年间在太空搭建由约1.2万颗卫星组成的“星链”网络,其中1584颗将部署在地球上空550千米处的近地轨道,并从2020年开始工作。该卫星仍在工作。
2D轨道图
3D轨道图
轨道高度分析图
轨道倾角分析图
轨道综合分析图
查看轨道综合分析图
交会数据列表
事件ID 空间交会对象 最接近时刻(TCA) 交会距离 交会风险概率(CRP) 交会风险指数(CRI) 操作
CDM_260904-061704-784006-931821
2026-09-04T
06:17:51+0000
2.640 km
极远距离
1.557317E-6 低风险 0.39
CDM_260904-232004-784006-811821
2026-09-04T
23:20:00+0000
2.647 km
极远距离
1.312114E-6 低风险 0.37